Year,Month,Day,Hour,Minute,Value (Times are PST for temperature in C)
2018,11,18,00,00,2.70
2018,11,18,00,01,2.80
2018,11,18,00,02,2.70
2018,11,18,00,03,2.70
2018,11,18,00,04,2.60
2018,11,18,00,05,2.60
2018,11,18,00,06,2.50
2018,11,18,00,07,2.60
2018,11,18,00,08,2.60
2018,11,18,00,09,2.60
2018,11,18,00,10,2.70
2018,11,18,00,11,2.70
2018,11,18,00,12,2.70
2018,11,18,00,13,2.70
2018,11,18,00,14,2.70
2018,11,18,00,15,2.70
2018,11,18,00,16,2.70
2018,11,18,00,17,2.60
2018,11,18,00,18,2.60
2018,11,18,00,19,2.50
2018,11,18,00,20,2.40
2018,11,18,00,21,2.40
2018,11,18,00,22,2.30
2018,11,18,00,23,2.20
2018,11,18,00,24,2.20
2018,11,18,00,25,2.10
2018,11,18,00,26,2.00
2018,11,18,00,27,2.00
2018,11,18,00,28,1.90
2018,11,18,00,29,1.90
2018,11,18,00,30,1.90
2018,11,18,00,31,1.80
2018,11,18,00,32,1.80
2018,11,18,00,33,1.80
2018,11,18,00,34,1.80
2018,11,18,00,35,1.80
2018,11,18,00,36,1.80
2018,11,18,00,37,1.80
2018,11,18,00,38,1.80
2018,11,18,00,39,1.70
2018,11,18,00,40,1.70
2018,11,18,00,41,1.70
2018,11,18,00,42,1.70
2018,11,18,00,43,1.70
2018,11,18,00,44,1.70
2018,11,18,00,45,1.70
2018,11,18,00,46,1.70
2018,11,18,00,47,1.70
2018,11,18,00,48,1.70
2018,11,18,00,49,1.80
2018,11,18,00,50,1.80
2018,11,18,00,51,1.80
2018,11,18,00,52,1.90
2018,11,18,00,53,1.90
2018,11,18,00,54,1.90
2018,11,18,00,55,1.90
2018,11,18,00,56,1.90
2018,11,18,00,57,1.90
2018,11,18,00,58,1.90
2018,11,18,00,59,1.90
2018,11,18,01,00,1.90
2018,11,18,01,01,1.90
2018,11,18,01,02,1.90
2018,11,18,01,03,1.90
2018,11,18,01,04,1.90
2018,11,18,01,05,2.00
2018,11,18,01,06,2.00
2018,11,18,01,07,2.00
2018,11,18,01,08,2.10
2018,11,18,01,09,2.10
2018,11,18,01,10,2.10
2018,11,18,01,11,2.00
2018,11,18,01,12,2.00
2018,11,18,01,13,1.90
2018,11,18,01,14,1.90
2018,11,18,01,15,1.80
2018,11,18,01,16,1.80
2018,11,18,01,17,1.70
2018,11,18,01,18,1.70
2018,11,18,01,19,1.60
2018,11,18,01,20,1.60
2018,11,18,01,21,1.50
2018,11,18,01,22,1.50
2018,11,18,01,23,1.40
2018,11,18,01,24,1.40
2018,11,18,01,25,1.30
2018,11,18,01,26,1.30
2018,11,18,01,27,1.30
2018,11,18,01,28,1.30
2018,11,18,01,29,1.40
2018,11,18,01,30,1.40
2018,11,18,01,31,1.40
2018,11,18,01,32,1.40
2018,11,18,01,33,1.40
2018,11,18,01,34,1.40
2018,11,18,01,35,1.40
2018,11,18,01,36,1.40
2018,11,18,01,37,1.40
2018,11,18,01,38,1.30
2018,11,18,01,39,1.30
2018,11,18,01,40,1.30
2018,11,18,01,41,1.30
2018,11,18,01,42,1.30
2018,11,18,01,43,1.30
2018,11,18,01,44,1.30
2018,11,18,01,45,1.30
2018,11,18,01,46,1.30
2018,11,18,01,47,1.20
2018,11,18,01,48,1.20
2018,11,18,01,49,1.20
2018,11,18,01,50,1.20
2018,11,18,01,51,1.10
2018,11,18,01,52,1.10
2018,11,18,01,53,1.20
2018,11,18,01,54,1.20
2018,11,18,01,55,1.20
2018,11,18,01,56,1.20
2018,11,18,01,57,1.20
2018,11,18,01,58,1.20
2018,11,18,01,59,1.20
2018,11,18,02,00,1.20
2018,11,18,02,01,1.20
2018,11,18,02,02,1.30
2018,11,18,02,03,1.30
2018,11,18,02,04,1.30
2018,11,18,02,05,1.30
2018,11,18,02,06,1.30
2018,11,18,02,07,1.30
2018,11,18,02,08,1.30
2018,11,18,02,09,1.30
2018,11,18,02,10,1.30
2018,11,18,02,11,1.30
2018,11,18,02,12,1.20
2018,11,18,02,13,1.20
2018,11,18,02,14,1.20
2018,11,18,02,15,1.20
2018,11,18,02,16,1.10
2018,11,18,02,17,1.10
2018,11,18,02,18,1.10
2018,11,18,02,19,1.10
2018,11,18,02,20,1.10
2018,11,18,02,21,1.10
2018,11,18,02,22,1.10
2018,11,18,02,23,1.10
2018,11,18,02,24,1.10
2018,11,18,02,25,1.00
2018,11,18,02,26,1.00
2018,11,18,02,27,1.00
2018,11,18,02,28,1.00
2018,11,18,02,29,1.00
2018,11,18,02,30,1.10
2018,11,18,02,31,1.10
2018,11,18,02,32,1.10
2018,11,18,02,33,1.10
2018,11,18,02,34,1.10
2018,11,18,02,35,1.10
2018,11,18,02,36,1.10
2018,11,18,02,37,1.10
2018,11,18,02,38,1.10
2018,11,18,02,39,1.10
2018,11,18,02,40,1.10
2018,11,18,02,41,1.20
2018,11,18,02,42,1.20
2018,11,18,02,43,1.20
2018,11,18,02,44,1.20
2018,11,18,02,45,1.20
2018,11,18,02,46,1.20
2018,11,18,02,47,1.20
2018,11,18,02,48,1.10
2018,11,18,02,49,1.10
2018,11,18,02,50,1.10
2018,11,18,02,51,1.10
2018,11,18,02,52,1.10
2018,11,18,02,53,1.10
2018,11,18,02,54,1.10
2018,11,18,02,55,1.10
2018,11,18,02,56,1.10
2018,11,18,02,57,1.10
2018,11,18,02,58,1.10
2018,11,18,02,59,1.10
2018,11,18,03,00,1.10
2018,11,18,03,01,1.10
2018,11,18,03,02,1.10
2018,11,18,03,03,1.10
2018,11,18,03,04,1.20
2018,11,18,03,05,1.20
2018,11,18,03,06,1.20
2018,11,18,03,07,1.20
2018,11,18,03,08,1.20
2018,11,18,03,09,1.10
2018,11,18,03,10,1.10
2018,11,18,03,11,1.10
2018,11,18,03,12,1.10
2018,11,18,03,13,1.10
2018,11,18,03,14,1.10
2018,11,18,03,15,1.00
2018,11,18,03,16,1.00
2018,11,18,03,17,0.90
2018,11,18,03,18,0.90
2018,11,18,03,19,0.90
2018,11,18,03,20,0.80
2018,11,18,03,21,0.80
2018,11,18,03,22,0.80
2018,11,18,03,23,0.80
2018,11,18,03,24,0.80
2018,11,18,03,25,0.80
2018,11,18,03,26,0.80
2018,11,18,03,27,0.80
2018,11,18,03,28,0.80
2018,11,18,03,29,0.80
2018,11,18,03,30,0.80
2018,11,18,03,31,0.80
2018,11,18,03,32,0.80
2018,11,18,03,33,0.80
2018,11,18,03,34,0.80
2018,11,18,03,35,0.80
2018,11,18,03,36,0.80
2018,11,18,03,37,0.90
2018,11,18,03,38,0.90
2018,11,18,03,39,0.90
2018,11,18,03,40,0.90
2018,11,18,03,41,0.90
2018,11,18,03,42,0.90
2018,11,18,03,43,0.90
2018,11,18,03,44,0.90
2018,11,18,03,45,0.90
2018,11,18,03,46,0.90
2018,11,18,03,47,0.90
2018,11,18,03,48,0.80
2018,11,18,03,49,0.80
2018,11,18,03,50,0.80
2018,11,18,03,51,0.80
2018,11,18,03,52,0.80
2018,11,18,03,53,0.80
2018,11,18,03,54,0.90
2018,11,18,03,55,0.90
2018,11,18,03,56,0.90
2018,11,18,03,57,0.90
2018,11,18,03,58,0.90
2018,11,18,03,59,0.90
2018,11,18,04,00,0.90
2018,11,18,04,01,1.00
2018,11,18,04,02,1.00
2018,11,18,04,03,1.00
2018,11,18,04,04,1.10
2018,11,18,04,05,1.20
2018,11,18,04,06,1.20
2018,11,18,04,07,1.20
2018,11,18,04,08,1.20
2018,11,18,04,09,1.20
2018,11,18,04,10,1.10
2018,11,18,04,11,1.10
2018,11,18,04,12,1.00
2018,11,18,04,13,1.00
2018,11,18,04,14,0.90
2018,11,18,04,15,0.90
2018,11,18,04,16,0.90
2018,11,18,04,17,0.80
2018,11,18,04,18,0.80
2018,11,18,04,19,0.80
2018,11,18,04,20,0.80
2018,11,18,04,21,0.80
2018,11,18,04,22,0.80
2018,11,18,04,23,0.80
2018,11,18,04,24,0.80
2018,11,18,04,25,0.80
2018,11,18,04,26,0.80
2018,11,18,04,27,0.90
2018,11,18,04,28,0.80
2018,11,18,04,29,0.80
2018,11,18,04,30,0.80
2018,11,18,04,31,0.80
2018,11,18,04,32,0.70
2018,11,18,04,33,0.70
2018,11,18,04,34,0.70
2018,11,18,04,35,0.80
2018,11,18,04,36,0.90
2018,11,18,04,37,1.10
2018,11,18,04,38,1.20
2018,11,18,04,39,1.30
2018,11,18,04,40,1.40
2018,11,18,04,41,1.40
2018,11,18,04,42,1.40
2018,11,18,04,43,1.40
2018,11,18,04,44,1.40
2018,11,18,04,45,1.30
2018,11,18,04,46,1.30
2018,11,18,04,47,1.20
2018,11,18,04,48,1.10
2018,11,18,04,49,1.00
2018,11,18,04,50,1.00
2018,11,18,04,51,0.90
2018,11,18,04,52,0.90
2018,11,18,04,53,0.90
2018,11,18,04,54,0.90
2018,11,18,04,55,0.90
2018,11,18,04,56,0.90
2018,11,18,04,57,0.90
2018,11,18,04,58,0.90
2018,11,18,04,59,0.90
2018,11,18,05,00,0.90
2018,11,18,05,01,0.90
2018,11,18,05,02,0.90
2018,11,18,05,03,0.80
2018,11,18,05,04,0.80
2018,11,18,05,05,0.80
2018,11,18,05,06,0.80
2018,11,18,05,07,0.80
2018,11,18,05,08,0.80
2018,11,18,05,09,0.80
2018,11,18,05,10,0.80
2018,11,18,05,11,0.80
2018,11,18,05,12,0.80
2018,11,18,05,13,0.80
2018,11,18,05,14,0.80
2018,11,18,05,15,0.70
2018,11,18,05,16,0.70
2018,11,18,05,17,0.70
2018,11,18,05,18,0.70
2018,11,18,05,19,0.70
2018,11,18,05,20,0.70
2018,11,18,05,21,0.80
2018,11,18,05,22,0.90
2018,11,18,05,23,0.90
2018,11,18,05,24,1.00
2018,11,18,05,25,1.00
2018,11,18,05,26,1.00
2018,11,18,05,27,1.00
2018,11,18,05,28,1.00
2018,11,18,05,29,1.00
2018,11,18,05,30,0.90
2018,11,18,05,31,0.90
2018,11,18,05,32,0.90
2018,11,18,05,33,0.90
2018,11,18,05,34,0.90
2018,11,18,05,35,0.90
2018,11,18,05,36,0.90
2018,11,18,05,37,0.90
2018,11,18,05,38,0.90
2018,11,18,05,39,0.90
2018,11,18,05,40,1.00
2018,11,18,05,41,1.00
2018,11,18,05,42,1.00
2018,11,18,05,43,1.00
2018,11,18,05,44,1.00
2018,11,18,05,45,1.10
2018,11,18,05,46,1.10
2018,11,18,05,47,1.10
2018,11,18,05,48,1.20
2018,11,18,05,49,1.20
2018,11,18,05,50,1.20
2018,11,18,05,51,1.30
2018,11,18,05,52,1.30
2018,11,18,05,53,1.30
2018,11,18,05,54,1.30
2018,11,18,05,55,1.30
2018,11,18,05,56,1.30
2018,11,18,05,57,1.40
2018,11,18,05,58,1.40
2018,11,18,05,59,1.50
2018,11,18,06,00,1.50
2018,11,18,06,01,1.50
2018,11,18,06,02,1.50
2018,11,18,06,03,1.60
2018,11,18,06,04,1.70
2018,11,18,06,05,1.70
2018,11,18,06,06,1.80
2018,11,18,06,07,1.80
2018,11,18,06,08,1.80
2018,11,18,06,09,1.80
2018,11,18,06,10,1.90
2018,11,18,06,11,1.90
2018,11,18,06,12,1.90
2018,11,18,06,13,1.90
2018,11,18,06,14,2.00
2018,11,18,06,15,2.00
2018,11,18,06,16,2.10
2018,11,18,06,17,2.10
2018,11,18,06,18,2.20
2018,11,18,06,19,2.30
2018,11,18,06,20,2.40
2018,11,18,06,21,2.50
2018,11,18,06,22,2.60
2018,11,18,06,23,2.60
2018,11,18,06,24,2.60
2018,11,18,06,25,2.60
2018,11,18,06,26,2.50
2018,11,18,06,27,2.50
2018,11,18,06,28,2.50
2018,11,18,06,29,2.60
2018,11,18,06,30,2.70
2018,11,18,06,31,2.70
2018,11,18,06,32,2.80
2018,11,18,06,33,2.80
2018,11,18,06,34,2.90
2018,11,18,06,35,2.90
2018,11,18,06,36,2.90
2018,11,18,06,37,2.90
2018,11,18,06,38,2.90
2018,11,18,06,39,2.90
2018,11,18,06,40,2.80
2018,11,18,06,41,2.80
2018,11,18,06,42,2.80
2018,11,18,06,43,2.80
2018,11,18,06,44,2.80
2018,11,18,06,45,2.90
2018,11,18,06,46,2.90
2018,11,18,06,47,2.90
2018,11,18,06,48,2.80
2018,11,18,06,49,2.80
2018,11,18,06,50,2.70
2018,11,18,06,51,2.70
2018,11,18,06,52,2.70
2018,11,18,06,53,2.70
2018,11,18,06,54,2.70
2018,11,18,06,55,2.70
2018,11,18,06,56,2.70
2018,11,18,06,57,2.70
2018,11,18,06,58,2.60
2018,11,18,06,59,2.50
2018,11,18,07,00,2.50
2018,11,18,07,01,2.40
2018,11,18,07,02,2.30
2018,11,18,07,03,2.30
2018,11,18,07,04,2.20
2018,11,18,07,05,2.10
2018,11,18,07,06,2.10
2018,11,18,07,07,2.00
2018,11,18,07,08,2.00
2018,11,18,07,09,1.90
2018,11,18,07,10,1.90
2018,11,18,07,11,1.80
2018,11,18,07,12,1.80
2018,11,18,07,13,1.80
2018,11,18,07,14,1.80
2018,11,18,07,15,1.80
2018,11,18,07,16,1.80
2018,11,18,07,17,1.80
2018,11,18,07,18,1.80
2018,11,18,07,19,1.80
2018,11,18,07,20,1.80
2018,11,18,07,21,1.80
2018,11,18,07,22,1.80
2018,11,18,07,23,1.80
2018,11,18,07,24,1.80
2018,11,18,07,25,1.80
2018,11,18,07,26,1.80
2018,11,18,07,27,1.80
2018,11,18,07,28,1.80
2018,11,18,07,29,1.80
2018,11,18,07,30,1.80
2018,11,18,07,31,1.80
2018,11,18,07,32,1.80
2018,11,18,07,33,1.80
2018,11,18,07,34,1.80
2018,11,18,07,35,1.80
2018,11,18,07,36,1.80
2018,11,18,07,37,1.80
2018,11,18,07,38,1.80
2018,11,18,07,39,1.80
2018,11,18,07,40,1.80
2018,11,18,07,41,1.80
2018,11,18,07,42,1.70
2018,11,18,07,43,1.70
2018,11,18,07,44,1.80
2018,11,18,07,45,1.80
2018,11,18,07,46,1.80
2018,11,18,07,47,1.80
2018,11,18,07,48,1.80
2018,11,18,07,49,1.80
2018,11,18,07,50,1.70
2018,11,18,07,51,1.70
2018,11,18,07,52,1.70
2018,11,18,07,53,1.70
2018,11,18,07,54,1.70
2018,11,18,07,55,1.70
2018,11,18,07,56,1.70
2018,11,18,07,57,1.70
2018,11,18,07,58,1.70
2018,11,18,07,59,1.70
2018,11,18,08,00,1.70
2018,11,18,08,01,1.60
2018,11,18,08,02,1.60
2018,11,18,08,03,1.70
2018,11,18,08,04,1.70
2018,11,18,08,05,1.70
2018,11,18,08,06,1.80
2018,11,18,08,07,1.80
2018,11,18,08,08,1.90
2018,11,18,08,09,2.00
2018,11,18,08,10,2.10
2018,11,18,08,11,2.20
2018,11,18,08,12,2.30
2018,11,18,08,13,2.30
2018,11,18,08,14,2.40
2018,11,18,08,15,2.40
2018,11,18,08,16,2.50
2018,11,18,08,17,2.50
2018,11,18,08,18,2.50
2018,11,18,08,19,2.50
2018,11,18,08,20,2.40
2018,11,18,08,21,2.40
2018,11,18,08,22,2.40
2018,11,18,08,23,2.40
2018,11,18,08,24,2.40
2018,11,18,08,25,2.40
2018,11,18,08,26,2.50
2018,11,18,08,27,2.50
2018,11,18,08,28,2.50
2018,11,18,08,29,2.50
2018,11,18,08,30,2.50
2018,11,18,08,31,2.40
2018,11,18,08,32,2.40
2018,11,18,08,33,2.40
2018,11,18,08,34,2.50
2018,11,18,08,35,2.60
2018,11,18,08,36,2.70
2018,11,18,08,37,2.80
2018,11,18,08,38,2.90
2018,11,18,08,39,2.90
2018,11,18,08,40,3.00
2018,11,18,08,41,3.10
2018,11,18,08,42,3.20
2018,11,18,08,43,3.20
2018,11,18,08,44,3.30
2018,11,18,08,45,3.30
2018,11,18,08,46,3.30
2018,11,18,08,47,3.40
2018,11,18,08,48,3.40
2018,11,18,08,49,3.50
2018,11,18,08,50,3.50
2018,11,18,08,51,3.50
2018,11,18,08,52,3.50
2018,11,18,08,53,3.60
2018,11,18,08,54,3.60
2018,11,18,08,55,3.60
2018,11,18,08,56,3.60
2018,11,18,08,57,3.60
2018,11,18,08,58,3.60
2018,11,18,08,59,3.70
2018,11,18,09,00,3.70
2018,11,18,09,01,3.70
2018,11,18,09,02,3.80
2018,11,18,09,03,3.80
2018,11,18,09,04,3.80
2018,11,18,09,05,3.80
2018,11,18,09,06,3.90
2018,11,18,09,07,3.90
2018,11,18,09,08,3.90
2018,11,18,09,09,3.90
2018,11,18,09,10,3.90
2018,11,18,09,11,3.90
2018,11,18,09,12,4.00
2018,11,18,09,13,4.00
2018,11,18,09,14,4.00
2018,11,18,09,15,4.00
2018,11,18,09,16,4.00
2018,11,18,09,17,4.00
2018,11,18,09,18,4.00
2018,11,18,09,19,4.00
2018,11,18,09,20,4.00
2018,11,18,09,21,4.00
2018,11,18,09,22,4.00
2018,11,18,09,23,4.00
2018,11,18,09,24,4.00
2018,11,18,09,25,4.00
2018,11,18,09,26,4.10
2018,11,18,09,27,4.10
2018,11,18,09,28,4.10
2018,11,18,09,29,4.10
2018,11,18,09,30,4.10
2018,11,18,09,31,4.10
2018,11,18,09,32,4.20
2018,11,18,09,33,4.20
2018,11,18,09,34,4.20
2018,11,18,09,35,4.20
2018,11,18,09,36,4.20
2018,11,18,09,37,4.20
2018,11,18,09,38,4.20
2018,11,18,09,39,4.30
2018,11,18,09,40,4.30
2018,11,18,09,41,4.30
2018,11,18,09,42,4.30
2018,11,18,09,43,4.30
2018,11,18,09,44,4.30
2018,11,18,09,45,4.40
2018,11,18,09,46,4.40
2018,11,18,09,47,4.40
2018,11,18,09,48,4.50
2018,11,18,09,49,4.50
2018,11,18,09,50,4.50
2018,11,18,09,51,4.60
2018,11,18,09,52,4.60
2018,11,18,09,53,4.70
2018,11,18,09,54,4.70
2018,11,18,09,55,4.70
2018,11,18,09,56,4.70
2018,11,18,09,57,4.80
2018,11,18,09,58,4.80
2018,11,18,09,59,4.80
2018,11,18,10,00,4.90
2018,11,18,10,01,4.90
2018,11,18,10,02,5.00
2018,11,18,10,03,5.00
2018,11,18,10,04,5.10
2018,11,18,10,05,5.10
2018,11,18,10,06,5.10
2018,11,18,10,07,5.10
2018,11,18,10,08,5.20
2018,11,18,10,09,5.20
2018,11,18,10,10,5.20
2018,11,18,10,11,5.30
2018,11,18,10,12,5.30
2018,11,18,10,13,5.30
2018,11,18,10,14,5.30
2018,11,18,10,15,5.40
2018,11,18,10,16,5.40
2018,11,18,10,17,5.40
2018,11,18,10,18,5.50
2018,11,18,10,19,5.50
2018,11,18,10,20,5.50
2018,11,18,10,21,5.50
2018,11,18,10,22,5.50
2018,11,18,10,23,5.60
2018,11,18,10,24,5.60
2018,11,18,10,25,5.60
2018,11,18,10,26,5.60
2018,11,18,10,27,5.60
2018,11,18,10,28,5.60
2018,11,18,10,29,5.70
2018,11,18,10,30,5.70
2018,11,18,10,31,5.70
2018,11,18,10,32,5.70
2018,11,18,10,33,5.80
2018,11,18,10,34,5.80
2018,11,18,10,35,5.80
2018,11,18,10,36,5.80
2018,11,18,10,37,5.90
2018,11,18,10,38,5.90
2018,11,18,10,39,5.90
2018,11,18,10,40,5.90
2018,11,18,10,41,5.90
2018,11,18,10,42,6.00
2018,11,18,10,43,6.00
2018,11,18,10,44,6.00
2018,11,18,10,45,6.00
2018,11,18,10,46,6.00
2018,11,18,10,47,6.00
2018,11,18,10,48,6.00
2018,11,18,10,49,6.00
2018,11,18,10,50,6.00
2018,11,18,10,51,6.00
2018,11,18,10,52,6.00
2018,11,18,10,53,6.10
2018,11,18,10,54,6.10
2018,11,18,10,55,6.10
2018,11,18,10,56,6.10
2018,11,18,10,57,6.20
2018,11,18,10,58,6.20
2018,11,18,10,59,6.20
2018,11,18,11,00,6.30
2018,11,18,11,01,6.30
2018,11,18,11,02,6.40
2018,11,18,11,03,6.40
2018,11,18,11,04,6.50
2018,11,18,11,05,6.60
2018,11,18,11,06,6.60
2018,11,18,11,07,6.60
2018,11,18,11,08,6.70
2018,11,18,11,09,6.70
2018,11,18,11,10,6.80
2018,11,18,11,11,6.80
2018,11,18,11,12,6.80
2018,11,18,11,13,6.80
2018,11,18,11,14,6.80
2018,11,18,11,15,6.80
2018,11,18,11,16,6.90
2018,11,18,11,17,6.90
2018,11,18,11,18,6.90
2018,11,18,11,19,6.90
2018,11,18,11,20,6.90
2018,11,18,11,21,6.90
2018,11,18,11,22,6.90
2018,11,18,11,23,6.90
2018,11,18,11,24,6.90
2018,11,18,11,25,7.00
2018,11,18,11,26,7.00
2018,11,18,11,27,7.00
2018,11,18,11,28,7.10
2018,11,18,11,29,7.10
2018,11,18,11,30,7.10
2018,11,18,11,31,7.10
2018,11,18,11,32,7.10
2018,11,18,11,33,7.10
2018,11,18,11,34,7.20
2018,11,18,11,35,7.10
2018,11,18,11,36,7.10
2018,11,18,11,37,7.10
2018,11,18,11,38,7.10
2018,11,18,11,39,7.10
2018,11,18,11,40,7.10
2018,11,18,11,41,7.20
2018,11,18,11,42,7.20
2018,11,18,11,43,7.20
2018,11,18,11,44,7.20
2018,11,18,11,45,7.20
2018,11,18,11,46,7.20
2018,11,18,11,47,7.20
2018,11,18,11,48,7.30
2018,11,18,11,49,7.30
2018,11,18,11,50,7.30
2018,11,18,11,51,7.30
2018,11,18,11,52,7.30
2018,11,18,11,53,7.40
2018,11,18,11,54,7.40
2018,11,18,11,55,7.50
2018,11,18,11,56,7.60
2018,11,18,11,57,7.60
2018,11,18,11,58,7.60
2018,11,18,11,59,7.60
2018,11,18,12,00,7.70
2018,11,18,12,01,7.60
2018,11,18,12,02,7.60
2018,11,18,12,03,7.60
2018,11,18,12,04,7.60
2018,11,18,12,05,7.70
2018,11,18,12,06,7.80
2018,11,18,12,07,7.80
2018,11,18,12,08,7.80
2018,11,18,12,09,7.80
2018,11,18,12,10,7.90
2018,11,18,12,11,7.90
2018,11,18,12,12,7.90
2018,11,18,12,13,7.90
2018,11,18,12,14,7.90
2018,11,18,12,15,7.90
2018,11,18,12,16,7.90
2018,11,18,12,17,7.90
2018,11,18,12,18,7.90
2018,11,18,12,19,7.90
2018,11,18,12,20,8.00
2018,11,18,12,21,8.00
2018,11,18,12,22,7.90
2018,11,18,12,23,7.90
2018,11,18,12,24,8.00
2018,11,18,12,25,8.00
2018,11,18,12,26,8.00
2018,11,18,12,27,8.00
2018,11,18,12,28,8.10
2018,11,18,12,29,8.10
2018,11,18,12,30,8.10
2018,11,18,12,31,8.10
2018,11,18,12,32,8.10
2018,11,18,12,33,8.10
2018,11,18,12,34,8.10
2018,11,18,12,35,8.10
2018,11,18,12,36,8.10
2018,11,18,12,37,8.10
2018,11,18,12,38,8.20
2018,11,18,12,39,8.20
2018,11,18,12,40,8.30
2018,11,18,12,41,8.30
2018,11,18,12,42,8.30
2018,11,18,12,43,8.40
2018,11,18,12,44,8.40
2018,11,18,12,45,8.40
2018,11,18,12,46,8.50
2018,11,18,12,47,8.50
2018,11,18,12,48,8.50
2018,11,18,12,49,8.60
2018,11,18,12,50,8.60
2018,11,18,12,51,8.50
2018,11,18,12,52,8.50
2018,11,18,12,53,8.50
2018,11,18,12,54,8.50
2018,11,18,12,55,8.50
2018,11,18,12,56,8.40
2018,11,18,12,57,8.40
2018,11,18,12,58,8.40
2018,11,18,12,59,8.40
2018,11,18,13,00,8.40
2018,11,18,13,01,8.50
2018,11,18,13,02,8.50
2018,11,18,13,03,8.60
2018,11,18,13,04,8.60
2018,11,18,13,05,8.70
2018,11,18,13,06,8.70
2018,11,18,13,07,8.80
2018,11,18,13,08,8.80
2018,11,18,13,09,8.80
2018,11,18,13,10,8.90
2018,11,18,13,11,8.90
2018,11,18,13,12,8.90
2018,11,18,13,13,9.00
2018,11,18,13,14,9.00
2018,11,18,13,15,9.10
2018,11,18,13,16,9.10
2018,11,18,13,17,9.10
2018,11,18,13,18,9.10
2018,11,18,13,19,9.20
2018,11,18,13,20,9.20
2018,11,18,13,21,9.30
2018,11,18,13,22,9.30
2018,11,18,13,23,9.30
2018,11,18,13,24,9.30
2018,11,18,13,25,9.30
2018,11,18,13,26,9.30
2018,11,18,13,27,9.30
2018,11,18,13,28,9.30
2018,11,18,13,29,9.10
2018,11,18,13,30,9.10
2018,11,18,13,31,9.10
2018,11,18,13,32,9.00
2018,11,18,13,33,9.00
2018,11,18,13,34,9.00
2018,11,18,13,35,8.90
2018,11,18,13,36,8.90
2018,11,18,13,37,8.90
2018,11,18,13,38,8.90
2018,11,18,13,39,8.90
2018,11,18,13,40,9.00
2018,11,18,13,41,9.00
2018,11,18,13,42,9.10
2018,11,18,13,43,9.10
2018,11,18,13,44,9.00
2018,11,18,13,45,9.00
2018,11,18,13,46,9.00
2018,11,18,13,47,9.00
2018,11,18,13,48,9.00
2018,11,18,13,49,9.00
2018,11,18,13,50,9.10
2018,11,18,13,51,9.10
2018,11,18,13,52,9.10
2018,11,18,13,53,9.20
2018,11,18,13,54,9.20
2018,11,18,13,55,9.30
2018,11,18,13,56,9.30
2018,11,18,13,57,9.30
2018,11,18,13,58,9.30
2018,11,18,13,59,9.30
2018,11,18,14,00,9.30
2018,11,18,14,01,9.40
2018,11,18,14,02,9.40
2018,11,18,14,03,9.40
2018,11,18,14,04,9.40
2018,11,18,14,05,9.40
2018,11,18,14,06,9.40
2018,11,18,14,07,9.30
2018,11,18,14,08,9.30
2018,11,18,14,09,9.30
2018,11,18,14,10,9.30
2018,11,18,14,11,9.30
2018,11,18,14,12,9.20
2018,11,18,14,13,9.20
2018,11,18,14,14,9.30
2018,11,18,14,15,9.30
2018,11,18,14,16,9.30
2018,11,18,14,17,9.30
2018,11,18,14,18,9.40
2018,11,18,14,19,9.50
2018,11,18,14,20,9.50
2018,11,18,14,21,9.60
2018,11,18,14,22,9.60
2018,11,18,14,23,9.70
2018,11,18,14,24,9.70
2018,11,18,14,25,9.70
2018,11,18,14,26,9.80
2018,11,18,14,27,9.80
2018,11,18,14,28,9.80
2018,11,18,14,29,9.80
2018,11,18,14,30,9.80
2018,11,18,14,31,9.80
2018,11,18,14,32,9.80
2018,11,18,14,33,9.90
2018,11,18,14,34,9.90
2018,11,18,14,35,9.90
2018,11,18,14,36,9.90
2018,11,18,14,37,9.90
2018,11,18,14,38,9.80
2018,11,18,14,39,9.80
2018,11,18,14,40,9.70
2018,11,18,14,41,9.70
2018,11,18,14,42,9.60
2018,11,18,14,43,9.50
2018,11,18,14,44,9.50
2018,11,18,14,45,9.40
2018,11,18,14,46,9.40
2018,11,18,14,47,9.30
2018,11,18,14,48,9.30
2018,11,18,14,49,9.30
2018,11,18,14,50,9.20
2018,11,18,14,51,9.20
2018,11,18,14,52,9.20
2018,11,18,14,53,9.20
2018,11,18,14,54,9.30
2018,11,18,14,55,9.20
2018,11,18,14,56,9.20
2018,11,18,14,57,9.10
2018,11,18,14,58,9.10
2018,11,18,14,59,9.10
2018,11,18,15,00,9.00
2018,11,18,15,01,8.90
2018,11,18,15,02,8.80
2018,11,18,15,03,8.70
2018,11,18,15,04,8.60
2018,11,18,15,05,8.50
2018,11,18,15,06,8.30
2018,11,18,15,07,8.20
2018,11,18,15,08,8.00
2018,11,18,15,09,7.80
2018,11,18,15,10,7.70
2018,11,18,15,11,7.60
2018,11,18,15,12,7.40
2018,11,18,15,13,7.40
2018,11,18,15,14,7.30
2018,11,18,15,15,7.20
2018,11,18,15,16,7.20
2018,11,18,15,17,7.10
2018,11,18,15,18,7.10
2018,11,18,15,19,7.00
2018,11,18,15,20,7.00
2018,11,18,15,21,6.90
2018,11,18,15,22,6.90
2018,11,18,15,23,6.90
2018,11,18,15,24,6.90
2018,11,18,15,25,6.80
2018,11,18,15,26,6.80
2018,11,18,15,27,6.80
2018,11,18,15,28,6.80
2018,11,18,15,29,6.80
2018,11,18,15,30,6.70
2018,11,18,15,31,6.70
2018,11,18,15,32,6.70
2018,11,18,15,33,6.70
2018,11,18,15,34,6.60
2018,11,18,15,35,6.60
2018,11,18,15,36,6.60
2018,11,18,15,37,6.50
2018,11,18,15,38,6.50
2018,11,18,15,39,6.50
2018,11,18,15,40,6.40
2018,11,18,15,41,6.40
2018,11,18,15,42,6.40
2018,11,18,15,43,6.40
2018,11,18,15,44,6.40
2018,11,18,15,45,6.30
2018,11,18,15,46,6.30
2018,11,18,15,47,6.30
2018,11,18,15,48,6.20
2018,11,18,15,49,6.20
2018,11,18,15,50,6.20
2018,11,18,15,51,6.10
2018,11,18,15,52,6.10
2018,11,18,15,53,6.10
2018,11,18,15,54,6.10
2018,11,18,15,55,6.10
2018,11,18,15,56,6.00
2018,11,18,15,57,6.00
2018,11,18,15,58,6.00
2018,11,18,15,59,6.00
2018,11,18,16,00,6.00
2018,11,18,16,01,6.00
2018,11,18,16,02,6.00
2018,11,18,16,03,5.90
2018,11,18,16,04,5.90
2018,11,18,16,05,5.90
2018,11,18,16,06,5.80
2018,11,18,16,07,5.80
2018,11,18,16,08,5.70
2018,11,18,16,09,5.70
2018,11,18,16,10,5.60
2018,11,18,16,11,5.60
2018,11,18,16,12,5.60
2018,11,18,16,13,5.60
2018,11,18,16,14,5.50
2018,11,18,16,15,5.50
2018,11,18,16,16,5.50
2018,11,18,16,17,5.50
2018,11,18,16,18,5.40
2018,11,18,16,19,5.40
2018,11,18,16,20,5.40
2018,11,18,16,21,5.30
2018,11,18,16,22,5.30
2018,11,18,16,23,5.30
2018,11,18,16,24,5.30
2018,11,18,16,25,5.30
2018,11,18,16,26,5.20
2018,11,18,16,27,5.20
2018,11,18,16,28,5.20
2018,11,18,16,29,5.20
2018,11,18,16,30,5.10
2018,11,18,16,31,5.10
2018,11,18,16,32,5.10
2018,11,18,16,33,5.00
2018,11,18,16,34,5.00
2018,11,18,16,35,4.90
2018,11,18,16,36,4.90
2018,11,18,16,37,4.90
2018,11,18,16,38,4.90
2018,11,18,16,39,4.80
2018,11,18,16,40,4.80
2018,11,18,16,41,4.80
2018,11,18,16,42,4.70
2018,11,18,16,43,4.70
2018,11,18,16,44,4.70
2018,11,18,16,45,4.60
2018,11,18,16,46,4.60
2018,11,18,16,47,4.60
2018,11,18,16,48,4.60
2018,11,18,16,49,4.50
2018,11,18,16,50,4.50
2018,11,18,16,51,4.50
2018,11,18,16,52,4.40
2018,11,18,16,53,4.40
2018,11,18,16,54,4.40
2018,11,18,16,55,4.40
2018,11,18,16,56,4.40
2018,11,18,16,57,4.30
2018,11,18,16,58,4.30
2018,11,18,16,59,4.30
2018,11,18,17,00,4.30
2018,11,18,17,01,4.20
2018,11,18,17,02,4.20
2018,11,18,17,03,4.20
2018,11,18,17,04,4.20
2018,11,18,17,05,4.10
2018,11,18,17,06,4.10
2018,11,18,17,07,4.10
2018,11,18,17,08,4.10
2018,11,18,17,09,4.10
2018,11,18,17,10,4.10
2018,11,18,17,11,4.10
2018,11,18,17,12,4.00
2018,11,18,17,13,4.00
2018,11,18,17,14,4.00
2018,11,18,17,15,4.00
2018,11,18,17,16,4.00
2018,11,18,17,17,3.90
2018,11,18,17,18,3.90
2018,11,18,17,19,3.90
2018,11,18,17,20,3.80
2018,11,18,17,21,3.80
2018,11,18,17,22,3.80
2018,11,18,17,23,3.80
2018,11,18,17,24,3.70
2018,11,18,17,25,3.70
2018,11,18,17,26,3.70
2018,11,18,17,27,3.70
2018,11,18,17,28,3.60
2018,11,18,17,29,3.60
2018,11,18,17,30,3.60
2018,11,18,17,31,3.60
2018,11,18,17,32,3.60
2018,11,18,17,33,3.60
2018,11,18,17,34,3.60
2018,11,18,17,35,3.60
2018,11,18,17,36,3.50
2018,11,18,17,37,3.50
2018,11,18,17,38,3.50
2018,11,18,17,39,3.40
2018,11,18,17,40,3.40
2018,11,18,17,41,3.40
2018,11,18,17,42,3.40
2018,11,18,17,43,3.30
2018,11,18,17,44,3.30
2018,11,18,17,45,3.30
2018,11,18,17,46,3.30
2018,11,18,17,47,3.30
2018,11,18,17,48,3.20
2018,11,18,17,49,3.20
2018,11,18,17,50,3.20
2018,11,18,17,51,3.20
2018,11,18,17,52,3.20
2018,11,18,17,53,3.20
2018,11,18,17,54,3.20
2018,11,18,17,55,3.20
2018,11,18,17,56,3.20
2018,11,18,17,57,3.10
2018,11,18,17,58,3.10
2018,11,18,17,59,3.10
2018,11,18,18,00,3.00
2018,11,18,18,01,3.00
2018,11,18,18,02,3.00
2018,11,18,18,03,2.90
2018,11,18,18,04,2.90
2018,11,18,18,05,2.90
2018,11,18,18,06,2.90